Simultaneous Nadir Overpasses (SNOs) Predictions

Prediction of SNOs between AQUA and GOES-15 Satellite Orbit:

Table of predicted SNOs for the next 14.0 days since TLE Epoch: 4/23/2016
Index Date Time (AQUA) AQUA Lat,Lon GOES-15 Lat,Lon Distance(km) Time Diff (sec)
1 04/24/2016 10:38:56 0.16,-135.77 0.06,-135.38 44.69 80
2 04/26/2016 10:26:43 -0.50,-132.82 0.06,-135.37 290.20 80
3 04/26/2016 22:48:06 -0.64,-138.00 -0.06,-135.35 301.49 80
4 04/28/2016 22:35:52 -0.03,-135.03 -0.06,-135.33 32.77 80
5 04/30/2016 22:23:38 0.59,-132.07 -0.07,-135.29 366.26 80
6 05/01/2016 10:44:54 0.45,-137.23 0.06,-135.30 219.93 80
7 05/03/2016 10:32:40 -0.17,-134.27 0.06,-135.26 112.90 80
8 05/03/2016 22:54:03 -0.95,-139.45 -0.06,-135.23 480.01 80
9 05/05/2016 10:20:25 -0.74,-131.29 0.07,-135.21 445.00 80
10 05/05/2016 22:41:49 -0.31,-136.49 -0.06,-135.18 147.97 80




NCC Satellite Simultaneous Nadir Overpasses (SNOs) Prediction Service
